Regional Weather Roundup
Issued by NWS

Home | Current Version | Previous Version | Text Only | Print | Product List | Glossary Off
Versions: 1 2 3 4 5 6 7 8 9 10 11 12 13 14 15 16 17 18 19 20 21 22 23 24 25 26 27 28 29 30 31 32 33 34 35 36 37 38 39 40 41 42 43 44 45 46 47 48 49 50

000
ASUS43 KOAX 230002
RWRNE

WEATHER ROUNDUP FOR NEBRASKA
NATIONAL WEATHER SERVICE OMAHA NE
600 PM CST WED NOV 22 2017

NOTES: SATELLITE DATA IS BEING USED TO AUGMENT CLOUD COVER ABOVE
       12000 FEET.
       "FAIR" INDICATES FEW OR NO CLOUDS BELOW 12,000 FEET WITH NO
       SIGNIFICANT WEATHER AND/OR OBSTRUCTIONS TO VISIBILITY.


NEZ001>004-019>022-054>056-230100-
NEBRASKA PANHANDLE

CITY           SKY/WX    TMP DP  RH WIND       PRES   REMARKS
SCOTTSBLUFF    CLEAR     59  40  49 W12       30.14R
6HR MIN TEMP:  59; 6HR MAX TEMP:  72;

ALLIANCE       CLEAR     51  35  54 W6        30.10R
6HR MIN TEMP:  50; 6HR MAX TEMP:  71;

CHADRON        MOCLDY    54  37  52 W7        30.08R
6HR MIN TEMP:  54; 6HR MAX TEMP:  69;

GORDON         MOCLDY    58  36  44 NW7       30.07R
6HR MIN TEMP:  58; 6HR MAX TEMP:  68;

KIMBALL        CLOUDY    55  39  53 NW12      30.19S
SIDNEY         CLOUDY    54  37  52 W12       30.16R
6HR MIN TEMP:  51; 6HR MAX TEMP:  70;

$$

NEZ057>060-069>072-079>082-230100-
SOUTHWEST NEBRASKA

CITY           SKY/WX    TMP DP  RH WIND       PRES   REMARKS
NORTH PLATTE   CLOUDY    50  38  63 CALM      30.05S
6HR MIN TEMP:  50; 6HR MAX TEMP:  68;

IMPERIAL       CLOUDY    59  37  44 W6        30.11R
6HR MIN TEMP:  58; 6HR MAX TEMP:  71;

LEXINGTON      CLOUDY    53  34  49 S6        30.06S
MCCOOK         CLEAR     62  38  40 SW5       30.07R
6HR MIN TEMP:  52; 6HR MAX TEMP:  68;

OGALLALA       CLEAR     55  37  49 CALM      30.09S
$$

NEZ005>010-023>029-035>040-094-230100-
NORTH CENTRAL NEBRASKA

CITY           SKY/WX    TMP DP  RH WIND       PRES   REMARKS
VALENTINE      CLOUDY    58  37  45 NW7       30.02R
6HR MIN TEMP:  57; 6HR MAX TEMP:  73;

AINSWORTH      CLOUDY    58  38  47 NW8       30.01R
BROKEN BOW     CLOUDY    51  34  52 CALM      30.03S
6HR MIN TEMP:  47; 6HR MAX TEMP:  62;

O`NEILL        CLOUDY    49  32  52 S8        29.99S
ORD            CLOUDY    49  31  49 S5        30.00F
6HR MIN TEMP:  41; 6HR MAX TEMP:  58;

THEDFORD       PTCLDY    58  38  47 W6        30.05R
$$

NEZ041-046>049-061>064-073>077-083>087-230100-
SOUTH CENTRAL NEBRASKA

CITY           SKY/WX    TMP DP  RH WIND       PRES   REMARKS
GRAND ISLAND   CLOUDY    47  27  45 S8        30.07S
6HR MIN TEMP:  38; 6HR MAX TEMP:  52;

AURORA         CLOUDY    47  22  37 S10       30.08R
HASTINGS       CLOUDY    47  25  42 S6        30.07S
6HR MIN TEMP:  39; 6HR MAX TEMP:  52;

HEBRON         CLEAR     42  19  40 S6        30.11F
HOLDREGE       CLOUDY    51  33  49 S9        30.06F
KEARNEY        CLEAR     50  31  48 SW12      30.06R
YORK           MOCLDY    45  23  42 S9        30.09R
$$

NEZ011>018-030>034-042>045-230100-
NORTHEAST NEBRASKA

CITY           SKY/WX    TMP DP  RH WIND       PRES   REMARKS
NORFOLK        CLOUDY    43  22  43 S10       30.04R
6HR MIN TEMP:  34; 6HR MAX TEMP:  45;

ALBION         PTCLDY    46  27  46 SE6       30.03F
BLAIR          CLEAR     38  19  47 S13       30.10S WCI  30
COLUMBUS       CLOUDY    43  22  43 S9        30.09R
FREMONT        CLOUDY    39  18  42 S7G16     30.11S WCI  34
TEKAMAH        PTCLDY    36  18  48 S9        30.10F WCI  29
6HR MIN TEMP:  33; 6HR MAX TEMP:  41;

WAYNE          CLOUDY    40  16  37 S10       30.04S WCI  34
$$

NEZ050>053-065>068-078-088>093-230100-
SOUTHEAST NEBRASKA

CITY           SKY/WX    TMP DP  RH WIND       PRES   REMARKS
LINCOLN        CLEAR     36  19  50 S8        30.12F WCI  30
6HR MIN TEMP:  34; 6HR MAX TEMP:  43;

OMAHA EPPLEY   MOCLDY    38  17  42 S10       30.12F WCI  31
6HR MIN TEMP:  33; 6HR MAX TEMP:  41;

BEATRICE       PTCLDY    40  20  44 S9        30.13F WCI  35
FALLS CITY     CLEAR     37  16  42 S5        30.18S WCI  33
6HR MIN TEMP:  34; 6HR MAX TEMP:  43;

NEBRASKA CITY  CLEAR     37  19  50 S8        30.16S WCI  30
PLATTSMOUTH    PTCLDY    36  18  47 S6        30.14F WCI  31
$$

NEZ044-045-051>053-067-230100-
OMAHA AREA

CITY           SKY/WX    TMP DP  RH WIND       PRES   REMARKS
OMAHA EPPLEY   MOCLDY    38  17  42 S10       30.12F WCI  31
6HR MIN TEMP:  33; 6HR MAX TEMP:  41;

BLAIR          CLEAR     38  19  47 S13       30.10S WCI  30
FREMONT        CLOUDY    39  18  42 S7G16     30.11S WCI  34
MILLARD        PTCLDY    40  20  44 SE5       30.13S
OFFUTT AFB     CLEAR     36  17  46 S6        30.13F WCI  31
PLATTSMOUTH    PTCLDY    36  18  47 S6        30.14F WCI  31
WAHOO          FAIR      38  18  43 S9        30.10F WCI  32
$$




USA.gov is the U.S. government's official web portal to all federal, state and local government web resources and services.